Date String (YYYY-MM-DD hh:mm:ss) UTC,Instrument flags,absolute air pressure of the measurement (hPa),sample flow rate (lpm),inlet stack bypass flow (lpm),air temperature of the measurement (°C),ambient temperature measured by the external sensor (°C),aerosol sample conditioner tube jacket temperature (°C),OPC LED temperature (°C),internal box temperature (°C),relative humidity of the measurement (%),span deviation,mass concentration of particles derived from Lorenz-Mie calculation of OPC scattering (μg/m³),mass concentration of particles derived from Lorenz-Mie calculation of OPC scattering (μg/m³),mass concentration of particles derived from Lorenz-Mie calculation of OPC scattering (μg/m³)
DateTimeUTC,F1_M11,P_M11,Q1_M11,Q2_M11,T1_M11,T2_M11,T3_M11,T4_M11,T5_M11,U1_M11,ZSPAN_M11,X0_M11,X2_M11,X1_M11
2024-03-29 14:00:00,SystemResetWarning,0822.4,4.99,000.00,018.3,017.3,000.0,027.1,020.0,24.3,0000.0,0006.69,0002.66,0001.80
2024-03-29 14:01:00,SystemResetWarning,0822.4,5.00,000.00,018.3,017.3,000.0,027.1,020.0,24.6,0000.0,0006.68,0002.65,0001.80
2024-03-29 14:02:00,SystemResetWarning,0822.4,5.00,000.00,018.3,017.3,000.0,027.0,020.0,24.7,0000.0,0006.56,0002.68,0001.78
2024-03-29 14:03:00,SystemResetWarning,0822.4,5.01,000.00,018.3,017.3,000.0,027.0,020.0,24.6,0000.0,0006.59,0002.69,0001.78
2024-03-29 14:04:00,SystemResetWarning,0822.4,5.00,000.00,018.3,017.3,000.0,027.0,020.0,24.2,0000.0,0006.29,0002.62,0001.75
2024-03-29 14:05:00,SystemResetWarning,0822.4,5.01,000.00,018.3,017.3,000.0,027.0,020.0,24.2,0000.0,0006.93,0002.63,0001.74
2024-03-29 14:06:00,SystemResetWarning,0822.4,4.99,000.00,018.3,017.3,000.0,027.0,020.0,24.0,0000.0,0007.45,0002.66,0001.74
2024-03-29 14:07:00,SystemResetWarning,0822.4,4.99,000.00,018.3,017.3,000.0,027.0,020.0,24.1,0000.0,0007.55,0002.63,0001.74
2024-03-29 14:08:00,SystemResetWarning,0822.4,5.00,000.00,018.3,017.2,000.0,027.0,020.0,23.9,0000.0,0007.88,0002.57,0001.72
2024-03-29 14:09:00,SystemResetWarning,0822.4,4.99,000.00,018.3,017.2,000.0,027.0,020.0,23.6,0000.0,0007.81,0002.54,0001.72
2024-03-29 14:10:00,SystemResetWarning,0822.4,5.01,000.00,018.2,017.2,000.0,027.0,020.0,23.7,0000.0,0007.82,0002.57,0001.73
2024-03-29 14:11:00,SystemResetWarning,0822.4,5.01,000.00,018.2,017.2,000.0,027.0,020.0,24.0,0000.0,0007.90,0002.60,0001.73
2024-03-29 14:12:00,SystemResetWarning,0822.5,4.99,000.00,018.3,017.2,000.0,027.0,020.0,24.1,0000.0,0007.92,0002.59,0001.73
2024-03-29 14:13:00,SystemResetWarning,0823.0,4.99,000.00,018.2,017.2,000.0,027.0,020.0,24.0,0000.0,0007.87,0002.53,0001.73
2024-03-29 14:14:00,SystemResetWarning,0822.9,5.00,000.00,018.2,017.2,000.0,027.0,020.0,23.7,0000.0,0007.91,0002.54,0001.74
2024-03-29 14:15:00,SystemResetWarning,0822.7,5.01,000.00,018.2,017.2,000.0,027.0,020.0,23.8,0000.0,0008.40,0002.63,0001.76
2024-03-29 14:16:00,SystemResetWarning,0822.6,5.01,000.00,018.2,017.2,000.0,027.0,020.0,23.9,0000.0,0008.45,0002.66,0001.78
2024-03-29 14:17:00,SystemResetWarning,0822.5,5.00,000.00,018.2,017.2,000.0,027.0,020.0,24.1,0000.0,0007.48,0002.62,0001.78
2024-03-29 14:18:00,SystemResetWarning,0822.8,4.99,000.00,018.2,017.2,000.0,027.0,020.0,24.1,0000.0,0007.20,0002.59,0001.78
2024-03-29 14:19:00,SystemResetWarning,0822.9,4.99,000.00,018.2,017.2,000.0,027.0,020.0,24.1,0000.0,0006.03,0002.59,0001.79
2024-03-29 14:20:00,SystemResetWarning,0823.0,5.01,000.00,018.2,017.2,000.0,027.0,020.0,24.1,0000.0,0005.90,0002.59,0001.80
2024-03-29 14:21:00,SystemResetWarning,0823.1,5.01,000.00,018.2,017.2,000.0,027.0,020.0,24.3,0000.0,0005.65,0002.57,0001.81
2024-03-29 14:22:00,SystemResetWarning,0822.9,5.00,000.00,018.2,017.2,000.0,027.0,020.0,23.9,0000.0,0005.43,0002.58,0001.81
2024-03-29 14:23:00,SystemResetWarning,0822.6,5.00,000.00,018.2,017.1,000.0,027.0,020.0,23.7,0000.0,0005.70,0002.70,0001.84
2024-03-29 14:24:00,SystemResetWarning,0822.4,4.99,000.00,018.2,017.1,000.0,027.0,020.0,23.9,0000.0,0005.81,0002.78,0001.86
2024-03-29 14:25:00,SystemResetWarning,0822.4,4.99,000.00,018.2,017.1,000.0,027.0,020.0,23.9,0000.0,0005.75,0002.76,0001.86
2024-03-29 14:26:00,SystemResetWarning,0822.4,4.99,000.00,018.2,017.1,000.0,027.0,020.0,23.7,0000.0,0006.34,0002.70,0001.88
2024-03-29 14:27:00,SystemResetWarning,0822.4,5.01,000.00,018.2,017.1,000.0,027.0,020.0,23.8,0000.0,0006.68,0002.70,0001.89
2024-03-29 14:28:00,SystemResetWarning,0822.4,5.01,000.00,018.2,017.1,000.0,027.0,020.0,23.8,0000.0,0006.77,0002.76,0001.91
2024-03-29 14:29:00,SystemResetWarning,0822.3,5.00,000.00,018.2,017.1,000.0,027.0,020.0,23.9,0000.0,0007.25,0002.88,0001.91
2024-03-29 14:30:00,SystemResetWarning,0822.3,5.00,000.00,018.2,017.1,000.0,027.0,020.0,24.0,0000.0,0007.94,0002.90,0001.92
2024-03-29 14:31:00,SystemResetWarning,0822.2,5.00,000.00,018.2,017.1,000.0,027.0,020.0,24.1,0000.0,0008.00,0002.95,0001.94
2024-03-29 14:32:00,SystemResetWarning,0822.2,5.00,000.00,018.2,017.1,000.0,027.0,020.0,24.2,0000.0,0008.08,0003.00,0001.97
2024-03-29 14:33:00,SystemResetWarning,0822.3,5.00,000.00,018.2,017.1,000.0,027.0,020.0,24.3,0000.0,0008.77,0003.06,0002.00
2024-03-29 14:34:00,SystemResetWarning,0822.3,4.99,000.00,018.2,017.1,000.0,027.0,020.0,24.4,0000.0,0009.82,0003.09,0001.99
2024-03-29 14:35:00,SystemResetWarning,0822.3,5.00,000.00,018.2,017.1,000.0,027.0,020.0,24.3,0000.0,0010.02,0003.08,0002.00
2024-03-29 14:36:00,SystemResetWarning,0822.3,5.00,000.00,018.2,017.2,000.0,027.0,020.0,24.1,0000.0,0010.01,0003.06,0002.02
2024-03-29 14:37:00,SystemResetWarning,0822.3,5.01,000.00,018.2,017.1,000.0,027.0,020.0,24.1,0000.0,0009.95,0003.08,0002.00
2024-03-29 14:38:00,SystemResetWarning,0822.3,5.00,000.00,018.2,017.1,000.0,027.0,020.0,24.4,0000.0,0010.82,0003.09,0002.01
2024-03-29 14:39:00,SystemResetWarning,0822.3,5.00,000.00,018.2,017.1,000.0,027.0,020.0,24.5,0000.0,0011.17,0003.10,0002.02
2024-03-29 14:40:00,SystemResetWarning,0822.2,5.00,000.00,018.2,017.1,000.0,027.0,020.0,24.3,0000.0,0011.14,0003.04,0002.04
2024-03-29 14:41:00,SystemResetWarning,0822.3,5.00,000.00,018.2,017.1,000.0,027.0,020.0,24.3,0000.0,0010.38,0003.00,0002.04
2024-03-29 14:42:00,SystemResetWarning,0822.3,5.00,000.00,018.2,017.1,000.0,027.0,020.0,24.2,0000.0,0010.47,0003.02,0002.04
2024-03-29 14:43:00,SystemResetWarning,0822.3,5.00,000.00,018.2,017.1,000.0,027.0,020.0,23.9,0000.0,0010.88,0003.02,0002.01
2024-03-29 14:44:00,SystemResetWarning,0822.3,5.00,000.00,018.2,017.1,000.0,027.0,020.0,24.0,0000.0,0010.49,0002.98,0002.00
2024-03-29 14:45:00,SystemResetWarning,0822.3,5.00,000.00,018.2,017.1,000.0,027.0,020.0,24.2,0000.0,0009.27,0002.93,0002.00
2024-03-29 14:46:00,SystemResetWarning,0822.4,5.00,000.00,018.2,017.1,000.0,027.0,020.0,24.3,0000.0,0008.98,0002.91,0001.97
2024-03-29 14:47:00,SystemResetWarning,0822.4,5.00,000.00,018.2,017.1,000.0,027.0,020.0,24.0,0000.0,0009.01,0002.95,0001.97
2024-03-29 14:48:00,SystemResetWarning,0822.4,5.00,000.00,018.2,017.1,000.0,027.0,020.0,23.9,0000.0,0008.46,0002.94,0001.97
2024-03-29 14:49:00,SystemResetWarning,0822.4,5.00,000.00,018.2,017.1,000.0,027.0,020.0,23.7,0000.0,0006.82,0002.92,0001.95
2024-03-29 14:50:00,SystemResetWarning,0822.4,5.00,000.00,018.2,017.1,000.0,027.0,020.0,23.7,0000.0,0006.83,0002.89,0001.93
2024-03-29 14:51:00,SystemResetWarning,0822.4,5.00,000.00,018.2,017.1,000.0,027.0,020.0,23.6,0000.0,0007.28,0002.93,0001.90
2024-03-29 14:52:00,SystemResetWarning,0822.4,5.00,000.00,018.2,017.1,000.0,027.0,020.0,23.7,0000.0,0007.84,0002.97,0001.90
2024-03-29 14:53:00,SystemResetWarning,0822.4,5.00,000.00,018.2,017.1,000.0,027.0,020.0,23.5,0000.0,0007.98,0002.94,0001.89
2024-03-29 14:54:00,SystemResetWarning,0822.4,4.99,000.00,018.2,017.1,000.0,027.0,020.0,23.6,0000.0,0007.56,0002.90,0001.87
2024-03-29 14:55:00,SystemResetWarning,0822.4,4.99,000.00,018.2,017.1,000.0,027.0,020.0,23.7,0000.0,0007.96,0002.88,0001.86
2024-03-29 14:56:00,SystemResetWarning,0822.7,5.00,000.00,018.2,017.1,000.0,027.0,020.0,23.6,0000.0,0007.86,0002.85,0001.85
2024-03-29 14:57:00,SystemResetWarning,0822.6,5.01,000.00,018.2,017.1,000.0,027.0,020.0,23.6,0000.0,0007.81,0002.84,0001.86
2024-03-29 14:58:00,SystemResetWarning,0822.9,5.01,000.00,018.2,017.1,000.0,027.0,020.0,23.7,0000.0,0007.80,0002.82,0001.86
2024-03-29 14:59:00,SystemResetWarning,0823.0,5.00,000.00,018.2,017.1,000.0,027.0,020.0,23.6,0000.0,0007.82,0002.84,0001.87
